Location: 22
(39.7117°N, 89.5929°W)
Time: 01:52:35
(UTC-06:00)

Tiangong - Visible Passes

Search period start: 06 December 2022 00:00
Search period end: 16 December 2022 00:00
Orbit: 386 x 393 km, 41.5° (Epoch: 06 December)

Date Brightness Start Highest point End Pass type
(mag) Time Alt. Az. Time Alt. Az. Time Alt. Az.
06 Dec -2.1 17:50:24 10° WNW 17:53:33 63° N 17:54:37 36° ENE visible
07 Dec -1.3 18:29:11 10° WNW 18:31:40 50° W 18:31:40 50° W visible
08 Dec -2.2 17:30:57 10° WNW 17:34:09 79° NNE 17:36:28 17° E visible
08 Dec 1.1 19:08:05 10° W 19:08:47 15° W 19:08:47 15° W visible
09 Dec -1.3 18:09:40 10° W 18:12:45 46° SSW 18:13:40 34° SSE visible
10 Dec -1.9 17:11:18 10° WNW 17:14:28 72° SSW 17:17:38 10° ESE visible
10 Dec 0.6 18:48:56 10° WSW 18:51:02 16° SSW 18:51:02 16° SSW visible
11 Dec -0.1 17:50:06 10° W 17:52:50 27° SSW 17:55:35 10° SSE visible
13 Dec 0.9 17:30:43 10° WSW 17:32:39 15° SSW 17:34:36 10° S visible
